Time,TemperatureF,DewpointF,PressureIn,WindDirection,WindDirectionDegrees,WindSpeedMPH,WindSpeedGustMPH,Humidity,HourlyPrecipIn,Conditions,Clouds,dailyrainin,SoftwareType,DateUTC
2013-03-04 00:01:00,20.0,15.0,29.76,WNW,298,5.0,17.0,81,0.00,,,0.00,weatherlink.com 1.10,2013-03-04 05:01:00,
2013-03-04 00:16:00,20.0,15.0,29.76,NW,318,5.0,12.0,82,0.00,,,0.00,weatherlink.com 1.10,2013-03-04 05:16:00,
2013-03-04 00:31:00,20.0,15.0,29.76,WNW,283,4.0,12.0,82,0.00,,,0.00,weatherlink.com 1.10,2013-03-04 05:31:00,
2013-03-04 00:46:00,20.1,16.0,29.77,ESE,108,3.0,11.0,83,0.00,,,0.00,weatherlink.com 1.10,2013-03-04 05:46:00,
2013-03-04 01:01:00,20.1,16.0,29.77,WNW,293,3.0,10.0,83,0.00,,,0.00,weatherlink.com 1.10,2013-03-04 06:01:00,
2013-03-04 01:16:00,20.2,16.0,29.77,NW,304,5.0,12.0,83,0.00,,,0.00,weatherlink.com 1.10,2013-03-04 06:16:00,
2013-03-04 01:31:00,20.3,16.0,29.77,NNW,336,8.0,10.0,83,0.00,,,0.00,weatherlink.com 1.10,2013-03-04 06:31:00,
2013-03-04 01:46:00,20.3,16.0,29.77,NNW,344,3.0,8.0,84,0.00,,,0.00,weatherlink.com 1.10,2013-03-04 06:46:00,
2013-03-04 02:01:00,20.3,16.0,29.77,WNW,294,5.0,10.0,84,0.00,,,0.00,weatherlink.com 1.10,2013-03-04 07:01:00,
2013-03-04 02:16:00,20.3,16.0,29.77,NW,326,2.0,11.0,84,0.00,,,0.00,weatherlink.com 1.10,2013-03-04 07:16:00,
2013-03-04 02:31:00,20.4,16.0,29.77,NNW,338,4.0,13.0,84,0.00,,,0.00,weatherlink.com 1.10,2013-03-04 07:31:00,
2013-03-04 02:46:00,20.4,17.0,29.77,NNE,15,2.0,14.0,85,0.00,,,0.00,weatherlink.com 1.10,2013-03-04 07:46:00,
2013-03-04 03:01:00,20.5,17.0,29.76,NNE,29,5.0,13.0,86,0.00,,,0.00,weatherlink.com 1.10,2013-03-04 08:01:00,
2013-03-04 03:16:00,20.6,17.0,29.76,WNW,294,10.0,15.0,86,0.00,,,0.00,weatherlink.com 1.10,2013-03-04 08:16:00,
2013-03-04 03:31:00,20.7,17.0,29.77,NNW,338,6.0,17.0,86,0.00,,,0.00,weatherlink.com 1.10,2013-03-04 08:31:00,
2013-03-04 03:46:00,20.8,18.0,29.77,NW,315,4.0,13.0,87,0.00,,,0.00,weatherlink.com 1.10,2013-03-04 08:46:00,
2013-03-04 04:01:00,20.8,18.0,29.77,NNW,335,4.0,13.0,87,0.00,,,0.00,weatherlink.com 1.10,2013-03-04 09:01:00,
2013-03-04 04:16:00,20.9,18.0,29.77,NNW,333,6.0,17.0,87,0.00,,,0.00,weatherlink.com 1.10,2013-03-04 09:16:00,
2013-03-04 04:31:00,21.1,18.0,29.77,NNE,13,2.0,16.0,87,0.00,,,0.00,weatherlink.com 1.10,2013-03-04 09:31:00,
2013-03-04 04:47:00,21.3,18.0,29.77,North,350,8.0,11.0,87,0.00,,,0.00,weatherlink.com 1.10,2013-03-04 09:47:00,
2013-03-04 05:02:00,21.3,18.0,29.78,NNW,336,8.0,14.0,86,0.00,,,0.00,weatherlink.com 1.10,2013-03-04 10:02:00,
2013-03-04 05:17:00,21.5,18.0,29.78,NNW,339,4.0,13.0,86,0.00,,,0.00,weatherlink.com 1.10,2013-03-04 10:17:00,
2013-03-04 05:32:00,21.6,18.0,29.78,NNW,331,5.0,12.0,86,0.00,,,0.00,weatherlink.com 1.10,2013-03-04 10:32:00,
2013-03-04 05:47:00,21.7,18.0,29.78,North,355,2.0,10.0,86,0.00,,,0.00,weatherlink.com 1.10,2013-03-04 10:47:00,
2013-03-04 06:02:00,21.7,18.0,29.77,NNW,327,15.0,15.0,86,0.00,,,0.00,weatherlink.com 1.10,2013-03-04 11:02:00,
2013-03-04 06:17:00,21.7,18.0,29.77,NW,315,12.0,15.0,85,0.00,,,0.00,weatherlink.com 1.10,2013-03-04 11:17:00,
2013-03-04 06:32:00,21.8,18.0,29.78,NNE,28,4.0,11.0,84,0.00,,,0.00,weatherlink.com 1.10,2013-03-04 11:32:00,
2013-03-04 06:47:00,21.7,18.0,29.78,WNW,303,3.0,13.0,85,0.00,,,0.00,weatherlink.com 1.10,2013-03-04 11:47:00,
2013-03-04 07:02:00,21.7,18.0,29.78,NNW,347,2.0,13.0,85,0.00,,,0.00,weatherlink.com 1.10,2013-03-04 12:02:00,
2013-03-04 07:17:00,22.0,18.0,29.78,WNW,303,6.0,15.0,83,0.00,,,0.00,weatherlink.com 1.10,2013-03-04 12:17:00,
2013-03-04 07:32:00,22.0,18.0,29.79,East,101,5.0,14.0,83,0.00,,,0.00,weatherlink.com 1.10,2013-03-04 12:32:00,
2013-03-04 07:47:00,22.2,17.0,29.78,WNW,301,4.0,14.0,81,0.00,,,0.00,weatherlink.com 1.10,2013-03-04 12:47:00,
2013-03-04 08:02:00,22.4,17.0,29.78,WNW,290,5.0,12.0,81,0.00,,,0.00,weatherlink.com 1.10,2013-03-04 13:02:00,
2013-03-04 08:17:00,22.7,18.0,29.78,NNE,22,3.0,12.0,81,0.00,,,0.00,weatherlink.com 1.10,2013-03-04 13:17:00,
2013-03-04 08:32:00,23.0,17.0,29.78,North,360,11.0,15.0,79,0.00,,,0.00,weatherlink.com 1.10,2013-03-04 13:32:00,
2013-03-04 08:47:00,23.2,17.0,29.77,NNW,342,14.0,21.0,78,0.00,,,0.00,weatherlink.com 1.10,2013-03-04 13:47:00,
2013-03-04 09:02:00,23.6,18.0,29.77,NW,321,2.0,13.0,78,0.00,,,0.00,weatherlink.com 1.10,2013-03-04 14:02:00,
2013-03-04 09:17:00,24.0,18.0,29.78,NNW,332,12.0,15.0,77,0.00,,,0.00,weatherlink.com 1.10,2013-03-04 14:17:00,
2013-03-04 09:32:00,24.4,18.0,29.78,WNW,288,6.0,18.0,75,0.00,,,0.00,weatherlink.com 1.10,2013-03-04 14:32:00,
2013-03-04 09:47:00,24.4,17.0,29.79,North,355,7.0,21.0,74,0.00,,,0.00,weatherlink.com 1.10,2013-03-04 14:47:00,
2013-03-04 10:02:00,24.4,18.0,29.79,North,5,8.0,14.0,75,0.00,,,0.00,weatherlink.com 1.10,2013-03-04 15:02:00,
2013-03-04 10:17:00,24.2,18.0,29.79,SW,227,7.0,16.0,76,0.00,,,0.00,weatherlink.com 1.10,2013-03-04 15:17:00,
2013-03-04 10:32:00,24.0,17.0,29.79,WNW,298,3.0,25.0,75,0.00,,,0.00,weatherlink.com 1.10,2013-03-04 15:32:00,
2013-03-04 10:47:00,24.5,17.0,29.79,NW,313,9.0,17.0,74,0.00,,,0.00,weatherlink.com 1.10,2013-03-04 15:47:00,
2013-03-04 11:02:00,25.3,18.0,29.78,North,9,4.0,16.0,73,0.00,,,0.00,weatherlink.com 1.10,2013-03-04 16:02:00,
2013-03-04 11:17:00,25.3,17.0,29.78,NNE,20,3.0,22.0,72,0.00,,,0.00,weatherlink.com 1.10,2013-03-04 16:17:00,
2013-03-04 11:32:00,26.0,18.0,29.78,NNW,347,13.0,24.0,72,0.00,,,0.00,weatherlink.com 1.10,2013-03-04 16:32:00,
2013-03-04 11:47:00,26.0,18.0,29.78,NNW,333,7.0,20.0,72,0.00,,,0.00,weatherlink.com 1.10,2013-03-04 16:47:00,
2013-03-04 12:02:00,26.5,18.0,29.77,North,355,6.0,19.0,71,0.00,,,0.00,weatherlink.com 1.10,2013-03-04 17:02:00,
2013-03-04 12:17:00,26.9,18.0,29.77,SW,236,8.0,18.0,70,0.00,,,0.00,weatherlink.com 1.10,2013-03-04 17:17:00,
2013-03-04 12:32:00,26.9,19.0,29.77,NNE,19,6.0,19.0,71,0.00,,,0.00,weatherlink.com 1.10,2013-03-04 17:32:00,
2013-03-04 12:47:00,26.9,18.0,29.76,West,266,10.0,22.0,70,0.00,,,0.00,weatherlink.com 1.10,2013-03-04 17:47:00,
2013-03-04 13:02:00,26.5,18.0,29.76,NNW,344,11.0,25.0,71,0.00,,,0.00,weatherlink.com 1.10,2013-03-04 18:02:00,
2013-03-04 13:18:00,26.0,18.0,29.76,NW,314,8.0,21.0,71,0.00,,,0.00,weatherlink.com 1.10,2013-03-04 18:18:00,
2013-03-04 13:33:00,27.0,18.0,29.76,NW,314,6.0,22.0,70,0.00,,,0.00,weatherlink.com 1.10,2013-03-04 18:33:00,
2013-03-04 13:48:00,27.0,18.0,29.76,WSW,237,9.0,23.0,70,0.01,,,0.01,weatherlink.com 1.10,2013-03-04 18:48:00,
2013-03-04 14:03:00,27.0,18.0,29.76,NW,306,9.0,22.0,69,0.01,,,0.01,weatherlink.com 1.10,2013-03-04 19:03:00,
2013-03-04 14:18:00,27.5,19.0,29.77,SW,217,7.0,22.0,69,0.01,,,0.01,weatherlink.com 1.10,2013-03-04 19:18:00,
2013-03-04 14:33:00,27.2,19.0,29.77,North,360,16.0,18.0,70,0.01,,,0.01,weatherlink.com 1.10,2013-03-04 19:33:00,
2013-03-04 14:48:00,26.7,18.0,29.78,NW,311,5.0,19.0,70,0.00,,,0.01,weatherlink.com 1.10,2013-03-04 19:48:00,
2013-03-04 15:03:00,26.5,18.0,29.78,SW,233,6.0,24.0,71,0.00,,,0.01,weatherlink.com 1.10,2013-03-04 20:03:00,
2013-03-04 15:18:00,26.4,19.0,29.78,NW,315,13.0,18.0,72,0.00,,,0.01,weatherlink.com 1.10,2013-03-04 20:18:00,
2013-03-04 15:33:00,26.1,19.0,29.79,NNW,335,5.0,17.0,73,0.00,,,0.01,weatherlink.com 1.10,2013-03-04 20:33:00,
2013-03-04 15:48:00,26.0,18.0,29.79,WNW,288,7.0,18.0,73,0.00,,,0.01,weatherlink.com 1.10,2013-03-04 20:48:00,
2013-03-04 16:03:00,25.7,18.0,29.80,NNE,22,12.0,15.0,74,0.00,,,0.01,weatherlink.com 1.10,2013-03-04 21:03:00,
2013-03-04 16:18:00,25.5,18.0,29.80,WNW,296,4.0,17.0,74,0.00,,,0.01,weatherlink.com 1.10,2013-03-04 21:18:00,
2013-03-04 16:33:00,25.2,18.0,29.81,WNW,291,4.0,20.0,74,0.00,,,0.01,weatherlink.com 1.10,2013-03-04 21:33:00,
2013-03-04 16:48:00,24.7,18.0,29.81,NNW,336,6.0,19.0,75,0.00,,,0.01,weatherlink.com 1.10,2013-03-04 21:48:00,
2013-03-04 17:03:00,24.5,18.0,29.81,NNW,343,3.0,26.0,75,0.00,,,0.01,weatherlink.com 1.10,2013-03-04 22:03:00,
2013-03-04 17:18:00,24.4,18.0,29.81,North,355,11.0,16.0,75,0.00,,,0.01,weatherlink.com 1.10,2013-03-04 22:18:00,
2013-03-04 17:33:00,24.3,17.0,29.82,West,259,4.0,20.0,75,0.00,,,0.01,weatherlink.com 1.10,2013-03-04 22:33:00,
2013-03-04 17:48:00,24.2,17.0,29.83,NW,311,12.0,18.0,75,0.00,,,0.01,weatherlink.com 1.10,2013-03-04 22:48:00,
2013-03-04 18:03:00,24.1,18.0,29.84,NNW,327,0.0,13.0,76,0.00,,,0.01,weatherlink.com 1.10,2013-03-04 23:03:00,
2013-03-04 18:18:00,24.1,18.0,29.84,NNW,333,1.0,13.0,76,0.00,,,0.01,weatherlink.com 1.10,2013-03-04 23:18:00,
2013-03-04 18:33:00,24.0,18.0,29.85,NW,315,5.0,15.0,77,0.00,,,0.01,weatherlink.com 1.10,2013-03-04 23:33:00,
2013-03-04 18:48:00,23.9,18.0,29.86,NNW,338,8.0,12.0,78,0.00,,,0.01,weatherlink.com 1.10,2013-03-04 23:48:00,
2013-03-04 19:03:00,23.9,18.0,29.86,NW,321,4.0,13.0,78,0.00,,,0.01,weatherlink.com 1.10,2013-03-05 00:03:00,
2013-03-04 19:18:00,23.9,18.0,29.86,NNW,348,8.0,14.0,78,0.00,,,0.01,weatherlink.com 1.10,2013-03-05 00:18:00,
2013-03-04 19:33:00,23.9,18.0,29.86,NNW,339,11.0,18.0,78,0.00,,,0.01,weatherlink.com 1.10,2013-03-05 00:33:00,
2013-03-04 19:48:00,23.9,18.0,29.86,West,265,6.0,15.0,79,0.00,,,0.01,weatherlink.com 1.10,2013-03-05 00:48:00,
2013-03-04 20:03:00,23.9,18.0,29.87,NW,309,4.0,18.0,79,0.00,,,0.01,weatherlink.com 1.10,2013-03-05 01:03:00,
2013-03-04 20:18:00,23.9,19.0,29.88,NNW,336,2.0,10.0,80,0.00,,,0.01,weatherlink.com 1.10,2013-03-05 01:18:00,
2013-03-04 20:33:00,23.9,19.0,29.89,West,276,2.0,17.0,81,0.00,,,0.01,weatherlink.com 1.10,2013-03-05 01:33:00,
2013-03-04 20:48:00,23.9,19.0,29.89,NW,316,7.0,12.0,81,0.00,,,0.01,weatherlink.com 1.10,2013-03-05 01:48:00,
2013-03-04 21:03:00,23.8,19.0,29.89,North,350,7.0,15.0,81,0.00,,,0.01,weatherlink.com 1.10,2013-03-05 02:03:00,
2013-03-04 21:18:00,23.8,19.0,29.89,North,351,4.0,17.0,82,0.00,,,0.01,weatherlink.com 1.10,2013-03-05 02:18:00,
2013-03-04 21:33:00,23.8,19.0,29.89,North,355,4.0,15.0,82,0.00,,,0.01,weatherlink.com 1.10,2013-03-05 02:33:00,
2013-03-04 21:48:00,23.8,19.0,29.90,NW,315,9.0,19.0,82,0.00,,,0.01,weatherlink.com 1.10,2013-03-05 02:48:00,
2013-03-04 22:03:00,23.8,19.0,29.90,WNW,296,3.0,15.0,83,0.00,,,0.01,weatherlink.com 1.10,2013-03-05 03:03:00,
2013-03-04 22:18:00,23.8,20.0,29.90,North,355,6.0,13.0,84,0.00,,,0.01,weatherlink.com 1.10,2013-03-05 03:18:00,
2013-03-04 22:33:00,23.7,20.0,29.91,WNW,284,8.0,11.0,85,0.00,,,0.01,weatherlink.com 1.10,2013-03-05 03:33:00,
2013-03-04 22:48:00,23.8,20.0,29.91,NNW,339,7.0,13.0,85,0.00,,,0.01,weatherlink.com 1.10,2013-03-05 03:48:00,
2013-03-04 23:03:00,23.7,20.0,29.91,NE,52,2.0,8.0,86,0.00,,,0.01,weatherlink.com 1.10,2013-03-05 04:03:00,
2013-03-04 23:18:00,23.7,20.0,29.91,NW,324,1.0,9.0,87,0.00,,,0.01,weatherlink.com 1.10,2013-03-05 04:18:00,
2013-03-04 23:33:00,23.8,21.0,29.91,NW,315,3.0,11.0,87,0.00,,,0.01,weatherlink.com 1.10,2013-03-05 04:33:00,
2013-03-04 23:48:00,24.0,20.0,29.91,NNW,334,3.0,8.0,86,0.00,,,0.01,weatherlink.com 1.10,2013-03-05 04:48:00,